[[{"header":{"parameterUnit":"m.s-1","parameterCategory":1,"la1":30.2992,"la2":30.254,"lo1":-89.0895,"lo2":-89.0443,"dy":0.0025,"dx":0.0025,"nx":19,"ny":19,"refTime":"2026-05-14T09:00:00:Z","depth":0,"parameterNumber":2,"parameterNumberName":"U-component_of_WINDS"},"data":[0,0,0,-1.9504,-1.9504,-1.9492,-1.9492,-1.9489,-1.9489,0,0,0,0,0,0,0,0,0,0,0,-1.9515,-1.9515,-1.9504,-1.9504,-1.9492,-1.9492,-1.9489,-1.9489,0,0,0,0,0,0,0,0,0,0,0,-1.9515,-1.9515,-1.9515,-1.9504,-1.9492,-1.9492,-1.9489,-1.9494,0,0,0,0,0,0,0,0,0,0,-1.9503,-1.952,-1.9515,-1.9515,-1.9504,-1.9492,-1.9492,-1.9494,-1.9493,-1.95,0,-1.9508,0,-1.9499,-1.949,-1.949,0,0,0,-1.9498,-1.9521,-1.9511,-1.9515,-1.9504,-1.9492,-1.9495,-1.9493,-1.9493,-1.95,-1.9508,-1.9507,-1.9499,-1.949,-1.949,-1.9548,-1.9549,0,0,-1.9499,-1.9517,-1.9511,-1.9511,-1.9514,-1.9496,-1.9495,-1.9493,-1.9503,-1.9508,-1.9507,-1.9499,-1.949,-1.949,-1.9548,-1.9548,0,0,0,-1.9504,-1.9517,-1.9507,-1.9511,-1.9508,-1.9496,-1.9495,-1.9503,-1.9498,-1.9507,-1.9499,-1.949,-1.949,-1.9547,-1.9548,-1.9592,0,0,0,-1.9504,-1.9521,-1.9508,-1.9519,-1.9509,-1.9505,-1.9505,-1.9498,-1.9497,-1.9499,-1.949,-1.949,-1.9547,-1.9548,-1.9589,-1.9609,0,0,0,-1.9513,-1.9521,-1.9522,-1.952,-1.9515,-1.9505,-1.95,-1.9498,-1.9493,-1.949,-1.949,-1.9546,-1.9547,-1.9587,-1.9605,-1.963,0,0,0,-1.9527,-1.9561,-1.9523,-1.9558,-1.9515,-1.9533,-1.95,-1.9511,-1.9515,-1.949,-1.9547,-1.9548,-1.9586,-1.9603,-1.9628,-1.9653,-1.9665,0,0,-1.958,-1.9568,-1.9587,-1.9553,-1.9582,-1.9533,-1.9568,-1.9553,-1.9537,-1.9546,-1.9547,-1.959,-1.9605,-1.9629,-1.9731,-1.9741,0,0,0,-1.961,-1.9624,-1.9628,-1.9632,-1.9622,-1.9616,-1.9594,-1.9589,-1.9596,-1.9545,-1.9605,-1.9614,-1.9627,-1.9638,-1.9647,-1.9657,-1.9554,-1.9554,-1.9554,-1.9709,-1.9687,-1.9718,-1.9694,-1.9699,-1.9677,-1.9679,-1.9669,-1.9644,-1.9659,-1.9661,-1.9725,-1.9739,-1.9745,-1.9756,-1.9673,-1.9673,-1.9674,-1.9674,-1.9784,-1.9801,-1.9769,-1.9787,-1.9763,-1.9778,-1.976,-1.9742,-1.9753,-1.9721,-1.9732,-1.9699,-1.9757,-1.9765,-1.9677,-1.9676,-1.9676,-1.9676,-1.9675,-1.9846,-1.985,-1.9844,-1.9849,-1.9855,-1.983,-1.9843,-1.9821,-1.98,-1.9811,-1.9811,-1.981,-1.9806,-1.9813,-1.9813,-1.9813,-1.9813,-1.9814,-1.9814,-1.9912,-1.9904,-1.9917,-1.9911,-1.9912,-1.9909,-1.989,-1.989,-1.9884,-1.9867,-1.9867,-1.9841,-1.9767,-1.9749,-1.9817,-1.9816,-1.9816,-1.9816,-1.9815,-1.9995,-1.9973,-1.9993,-1.9994,-1.9986,-1.9994,-1.9966,-1.9969,-1.9965,-1.9972,-1.9945,-1.9894,-1.988,-1.9873,-1.9857,-1.995,-1.995,-1.995,-1.995,-2.0047,-2.0038,-2.0054,-2.0057,-2.0057,-2.0035,-2.0059,-2.0044,-2.0026,-2.0023,-2.0007,-1.9985,-1.9979,-1.9968,-1.9959,-1.9944,-2.0057,-2.0057,-2.0057,-2.0097,-2.0087,-2.0111,-2.0093,-2.0086,-2.008,-2.0102,-2.0107,-2.0081,-2.0061,-2.002,-2.0016,-1.998,-1.9969,-1.9946,-1.9932,-1.9904,0,0]},{"header":{"parameterUnit":"m.s-1","parameterCategory":1,"la1":30.2992,"la2":30.254,"lo1":-89.0895,"lo2":-89.0443,"dy":0.0025,"dx":0.0025,"nx":19,"ny":19,"refTime":"2026-05-14T09:00:00:Z","depth":0,"parameterNumber":3,"parameterNumberName":"V-component_of_WINDS"},"data":[0,0,0,4.0526,4.0525,4.048,4.048,4.0426,4.0426,0,0,0,0,0,0,0,0,0,0,0,4.0543,4.0543,4.0526,4.0525,4.048,4.048,4.0426,4.0426,0,0,0,0,0,0,0,0,0,0,0,4.0543,4.0543,4.0543,4.0525,4.048,4.048,4.0426,4.0458,0,0,0,0,0,0,0,0,0,0,4.0501,4.0522,4.0543,4.0543,4.0524,4.048,4.048,4.046,4.0456,4.0449,0,4.0445,0,4.0435,4.0423,4.0423,0,0,0,4.0521,4.0525,4.0509,4.0543,4.0524,4.048,4.0499,4.0458,4.0454,4.0445,4.0445,4.0442,4.0434,4.0422,4.0422,4.0399,4.0399,0,0,4.0523,4.0537,4.0512,4.0507,4.0517,4.05,4.0498,4.0455,4.0455,4.0444,4.0441,4.0433,4.0422,4.0422,4.0399,4.0399,0,0,0,4.0533,4.0539,4.0524,4.0509,4.0501,4.0499,4.0496,4.0457,4.0451,4.044,4.0433,4.0422,4.0421,4.0399,4.0399,4.0418,0,0,0,4.0534,4.0544,4.0525,4.0533,4.0502,4.0479,4.0499,4.0454,4.0449,4.0433,4.0422,4.0421,4.0399,4.0399,4.0417,4.0424,0,0,0,4.0545,4.0546,4.0541,4.0534,4.0515,4.0479,4.0471,4.0453,4.0445,4.0423,4.0421,4.0399,4.0399,4.0417,4.0423,4.0423,0,0,0,4.0559,4.0556,4.0541,4.0535,4.0516,4.0492,4.0471,4.0452,4.0435,4.0422,4.0399,4.0399,4.0417,4.0422,4.0423,4.0426,4.0429,0,0,4.0562,4.0557,4.0552,4.0538,4.0521,4.0498,4.0483,4.0453,4.0436,4.0412,4.0411,4.0418,4.0423,4.0423,4.044,4.0442,0,0,0,4.0558,4.0555,4.0547,4.0534,4.0513,4.0496,4.0467,4.0457,4.0436,4.0428,4.0417,4.042,4.0419,4.042,4.0422,4.0421,4.04,4.04,4.04,4.0581,4.0564,4.0555,4.0533,4.052,4.0493,4.048,4.0461,4.0444,4.0443,4.0435,4.0448,4.0449,4.0451,4.045,4.0435,4.0435,4.0435,4.0435,4.0585,4.0578,4.0561,4.0546,4.0527,4.0514,4.0488,4.0477,4.0461,4.0451,4.045,4.044,4.0454,4.0452,4.0437,4.0436,4.0436,4.0436,4.0436,4.0599,4.0593,4.0582,4.0562,4.0549,4.0525,4.0513,4.0495,4.0478,4.0477,4.0468,4.0467,4.0465,4.0474,4.0474,4.0474,4.0474,4.0474,4.0474,4.0617,4.0604,4.0597,4.0577,4.0567,4.0552,4.0526,4.0515,4.0498,4.0486,4.0486,4.0471,4.0459,4.0457,4.0475,4.0475,4.0474,4.0474,4.0474,4.0627,4.0623,4.0611,4.0602,4.0578,4.0566,4.0545,4.0525,4.0514,4.0508,4.0494,4.0488,4.0479,4.0478,4.0476,4.0497,4.0497,4.0497,4.0497,4.0639,4.0634,4.0619,4.0606,4.059,4.0571,4.0558,4.0538,4.0516,4.0508,4.0503,4.0498,4.0498,4.049,4.0488,4.0485,4.0509,4.0509,4.0509,4.0644,4.0638,4.063,4.0612,4.0593,4.0577,4.0564,4.0548,4.0522,4.0509,4.0502,4.0501,4.0494,4.0493,4.0479,4.0476,4.0471,0,0]}]]